Dewpoint
0 -0 -1 -1 -1 0 -2 1 -0 -1 0 -2 -10 -13 -15 -13 -11 -8 -7 2 8 9 9 9 9 4 -2 3 0 0 1 -0 1 1 2 1 -0 -2 -2 -4 -4 -1 -7 -6 -5 -7 -6
1 -1 -4 -2 -2 -1 1 -2 1 -1 -4 -4 -5 -6 -10 -14 -14 -12 -7 -5 -2 7 9 9 9 8 4 2 -2 -6 -2 -0 1 2 1 1 1 -1 -1 -3 -2 -4 -3 -5 -3 -2 -3
-2 -3 -4 -5 -5 -3 -1 -2 -0 1 -2 -5 -5 -3 -2 -6 -10 -11 -10 -11 -4 -3 8 9 9 9 7 2 -1 -6 -6 -5 -2 1 1 1 2 1 -0 -2 -1 -1 -1 -2 -1 0 -1
-3 -3 -4 -1 -1 -5 -4 -2 -2 0 -3 -5 -5 -5 -4 -4 -5 -7 -11 -9 -11 -5 -1 8 8 8 7 5 3 -1 -2 -1 -2 -1 -0 1 2 3 1 1 2 1 -0 -0 -5 -4 -1
-2 -2 -1 -2 -1 -2 -3 -2 -1 -0 -1 -4 -5 -5 -2 -3 -3 -4 -7 -10 -9 -9 -3 3 8 7 7 6 6 4 -3 -1 2 2 2 2 2 2 3 3 2 2 1 -1 -3 -5 -3
-1 -1 -2 -2 -2 -3 -3 -1 -2 -1 -0 -3 -5 -5 -3 -1 -3 -4 -5 -9 -8 -3 0 3 7 7 7 5 5 5 3 0 -1 -0 1 1 2 2 3 4 4 0 1 1 -1 -3 -0
-2 -2 -3 -2 -2 -3 -3 -3 -2 -0 0 -2 -1 -3 -3 -2 -2 -3 -5 -2 1 1 3 1 6 6 3 5 4 4 2 2 0 -2 -2 -0 3 3 1 1 1 -0 -1 0 -2 -4 0
-2 -2 -2 -2 -2 -5 -4 -4 -2 0 0 -1 -2 -3 -3 -1 -1 -2 -4 -1 0 3 3 1 1 6 5 3 2 3 3 1 1 -0 -4 -2 4 -1 -2 -1 2 3 3 2 -2 -3 1
-3 -2 -3 -3 -3 -3 -4 -2 -2 -0 -0 -1 -3 -2 -2 -1 -2 -2 -2 -2 -6 -4 1 -1 1 -2 5 3 3 2 2 0 0 1 -3 -2 -3 -3 -2 -1 2 4 3 1 1 -1 1
-3 -5 -7 -6 -5 -5 -4 -4 -3 -1 -1 -2 -3 -2 -2 -3 -3 -1 -1 -4 -4 -1 1 -3 -2 1 0 4 4 3 2 1 -0 0 -1 -3 -5 -5 -1 1 1 4 -0 0 1 3 5
-5 -7 -7 -6 -4 -4 -4 -4 -4 -2 -2 -3 -5 -6 -6 -7 -1 -1 -1 -2 -4 0 1 -10 -6 -1 1 3 -1 2 3 2 1 0 -1 -0 -3 -3 -3 1 -0 1 -1 -1 1 4 3
-5 -6 -6 -7 -5 -4 -4 -5 -4 -4 -3 -3 -6 -6 -5 -3 -2 -1 -3 -5 -5 2 0 -6 -3 2 3 4 2 -1 2 2 2 2 -1 -1 -4 -4 -3 -4 -2 -1 1 1 1 3 6
-5 -5 -6 -5 -6 -6 -5 -5 -4 -3 -3 -3 -3 -7 -4 -1 -3 -4 -4 -2 -1 2 -5 -1 1 0 3 5 4 1 4 5 6 7 7 2 1 -3 -4 -2 -3 1 3 5 6 7 7
-4 -5 -6 -8 -5 -6 -7 -8 -5 -4 -3 -3 -2 -6 -4 -2 -5 -4 -3 -2 -1 -4 -2 -0 1 1 3 2 2 4 3 5 4 4 4 5 5 0 -3 -1 -1 -0 3 5 7 4 2
-5 -4 -3 -5 -7 -7 -6 -7 -8 -6 -3 -4 -5 -5 -3 -4 -5 -5 -2 -1 -4 -6 -9 -8 -2 3 5 2 2 3 4 4 3 3 4 3 3 -2 -2 -2 -1 -0 3 2 4 1 4
-3 -4 -5 -4 -6 -6 -6 -6 -6 -6 -6 -4 -4 -2 -3 -8 -7 -2 -1 -2 -4 -9 -10 -6 2 2 3 3 5 5 4 2 1 -0 0 1 3 -1 -1 -2 -2 -0 -1 6 6 10 8
-3 -4 -4 -5 -6 -6 -6 -7 -7 -6 -5 -3 -3 -2 -3 -5 -6 -2 -1 -4 -5 -9 -11 -6 -4 2 2 3 5 5 3 1 1 -0 -1 2 2 1 -2 1 1 1 2 3 5 6 9
-3 -2 -3 -3 -4 -5 -6 -6 -7 -7 -5 -3 -2 -0 -4 -3 -1 -3 -1 -5 -7 -9 -11 -9 -8 -7 -2 -2 2 3 5 1 -2 1 3 2 4 7 2 -2 -1 -0 2 3 9 10 8
-3 -3 -3 -3 -3 -4 -4 -5 -6 -5 -5 -2 -2 -2 -3 -2 -2 -1 -1 -2 -5 -7 -9 -9 -7 -8 -5 -1 2 0 1 2 -0 2 2 2 6 9 6 2 1 2 2 2 6 10 10
-3 -3 -2 -2 -3 -4 -4 -4 -4 -4 -5 -3 -2 -1 -2 -1 -3 -3 -2 -2 -3 -6 -7 -8 -7 -8 -6 -3 -5 -0 -2 -5 -2 -1 -1 2 6 6 8 4 2 6 4 3 6 9 8
-3 -2 -3 -3 -3 -4 -4 -4 -4 -4 -3 -3 -2 -1 -3 -1 -1 -2 -4 -3 -3 -2 -6 -7 -5 -5 -4 -1 -3 -2 -5 -8 -8 -6 -1 3 8 7 5 2 1 3 4 4 5 6 8
-3 -3 -3 -3 -3 -3 -4 -4 -3 -3 -3 -2 -2 -1 -3 -5 -6 -2 -3 -2 -3 -4 -5 -4 -3 -5 -5 -2 -3 -1 -3 -4 -3 -8 -3 0 5 7 7 3 2 3 1 2 3 4 4
-3 -3 -2 -3 -3 -3 -3 -4 -4 -4 -3 -1 -1 -1 -1 -4 -3 -3 -3 -3 -4 -6 -5 -6 -6 -4 -3 -3 -6 -5 -5 -5 -2 1 0 1 2 4 7 5 6 7 5 3 2 3 4
-4 -4 -3 -3 -3 -3 -3 -4 -4 -4 -3 -2 -2 -1 -1 -1 -2 -3 -5 -4 -3 -5 -2 -6 -6 -4 -5 -5 -5 -4 -5 -4 -3 -2 -1 3 3 4 4 5 8 6 2 1 3 2 2
-4 -3 -3 -3 -3 -3 -2 -2 -3 -4 -4 -2 -1 -2 -1 -1 -4 -5 -5 -5 -6 -6 -5 -5 -6 -6 -5 -2 0 0 0 1 0 1 -0 1 3 4 5 7 6 4 2 3 4 5 2
-4 -3 -3 -3 -3 -3 -3 -2 -2 -3 -3 -1 -2 -2 -1 -1 -2 -5 -4 -5 -2 -1 -0 -2 -5 -4 -2 0 0 -0 -1 -2 -1 4 -0 0 3 2 3 5 7 3 -0 0 2 8 2
-5 -4 -3 -4 -4 -5 -5 -5 -5 -5 -4 -2 -2 -1 -1 -1 -1 -3 -2 -2 -4 -3 -0 -3 -2 -2 -2 1 1 0 -1 -3 -1 -1 5 5 4 4 3 4 6 1 1 2 8 7 3
-4 -5 -5 -5 -5 -5 -5 -5 -5 -6 -5 -4 -3 -2 -1 -1 -1 -2 -3 -2 -3 -2 0 -3 -1 0 1 1 1 -1 -1 -2 -1 -2 1 3 4 6 5 6 7 2 2 6 5 1 3
-3 -4 -5 -6 -6 -6 -5 -6 -6 -5 -3 -2 -2 -1 -1 -1 -1 -1 -1 -2 -2 -3 -2 -1 -1 -2 -2 -1 -1 -2 -1 -1 0 3 2 4 5 8 6 7 4 1 3 3 1 3 1
Wind_Speed
17 18 22 20 18 18 21 20 18 14 16 18 17 18 19 21 21 22 24 24 24 21 25 20 18 18 14 12 19 4 9 6 5 5 1 12 16 19 17 13 18 18 18 14 17 17 17
17 22 20 18 18 21 18 20 19 17 17 16 15 14 15 17 19 21 20 21 23 25 21 24 21 20 16 24 17 26 20 14 12 8 5 7 9 16 15 19 15 5 20 21 17 17 18
23 25 20 19 17 23 24 22 21 19 17 18 15 13 13 13 15 18 19 20 19 20 22 24 21 24 21 29 15 11 20 31 25 13 11 8 10 11 6 14 18 17 19 18 17 17 17
19 18 20 20 23 21 24 23 22 21 19 17 15 13 13 12 13 15 16 17 19 18 21 21 15 22 15 12 26 28 12 10 19 17 14 12 9 13 18 10 10 12 18 19 18 21 23
16 19 21 23 23 26 24 26 24 20 17 15 15 14 13 12 12 11 12 15 15 17 17 21 10 21 9 13 26 24 28 24 8 7 7 8 10 16 12 16 15 16 17 19 17 16 13
18 19 23 24 25 26 26 25 23 20 18 17 14 13 13 11 12 12 10 10 10 10 11 11 16 10 20 7 11 21 23 27 23 17 11 11 12 13 15 15 20 20 17 18 18 6 14
19 20 22 22 23 23 22 20 21 17 16 14 12 11 11 11 10 10 8 2 3 6 16 19 12 19 4 11 6 18 18 23 22 18 23 17 13 25 31 25 22 22 15 21 18 13 12
20 21 22 22 25 22 18 17 16 17 15 14 13 11 10 9 10 8 6 2 2 5 9 28 32 27 28 14 8 11 19 20 23 27 22 20 26 30 25 24 22 23 23 24 20 16 13
20 22 22 23 21 19 18 16 15 15 14 12 15 11 9 8 9 10 8 8 10 14 7 17 29 39 30 18 8 17 22 20 20 22 29 29 34 24 24 25 24 27 28 24 22 14 14
19 21 19 18 18 17 16 14 13 16 13 11 13 11 10 9 8 6 6 8 6 4 5 12 21 27 41 35 18 28 24 15 12 22 24 27 35 28 25 28 27 28 26 24 21 17 18
15 16 17 17 17 16 14 13 14 13 11 13 12 10 11 11 6 5 4 5 3 9 6 9 29 12 28 40 23 36 34 26 21 15 20 26 22 28 31 29 25 29 24 22 20 20 20
17 17 17 17 17 15 13 13 13 13 14 13 10 9 9 7 10 10 10 11 4 6 11 6 8 18 21 30 38 14 38 41 30 18 17 33 25 22 35 31 23 18 18 13 18 15 18
18 18 16 15 13 11 10 9 10 11 12 13 12 9 10 9 6 6 7 5 6 12 1 6 9 14 25 22 25 31 26 27 18 17 15 30 30 25 21 23 28 24 17 13 13 14 21
19 17 16 15 13 12 10 9 8 9 10 10 11 10 11 10 8 7 5 6 13 5 24 4 6 19 18 23 24 26 25 25 30 26 20 25 23 32 29 34 26 32 28 15 21 20 23
19 20 18 16 13 12 11 9 9 8 9 9 10 13 11 11 10 10 9 9 8 15 11 21 11 7 13 21 15 22 27 29 32 33 26 24 34 22 30 32 26 31 24 34 24 18 11
24 22 20 18 16 14 13 11 10 8 8 9 11 8 11 11 14 14 6 10 8 19 19 11 9 7 4 19 19 18 20 18 33 37 34 29 24 28 23 23 32 30 24 20 15 10 22
24 22 22 21 19 18 16 14 13 10 9 11 10 5 7 13 15 13 11 11 15 21 18 11 17 8 10 13 7 21 16 20 31 27 33 34 25 26 24 27 31 23 26 20 18 16 14
24 23 22 20 21 20 19 18 16 14 10 12 9 4 12 20 9 6 12 6 12 14 15 18 20 21 20 20 14 9 5 19 24 33 30 36 15 26 30 24 29 32 30 29 13 15 20
24 22 21 20 21 19 18 18 18 16 15 13 6 6 12 21 8 11 6 5 17 15 15 11 15 18 16 13 5 9 8 5 26 19 23 26 17 21 20 26 18 25 28 30 28 8 20
20 18 16 17 17 17 16 15 15 16 17 19 6 4 7 22 20 15 14 15 14 15 18 22 21 19 21 20 18 12 19 14 15 22 31 20 19 22 25 26 26 21 30 31 29 19 22
13 13 13 14 14 15 15 16 16 16 17 21 12 6 9 5 12 18 14 7 13 12 16 16 11 19 20 16 13 16 23 29 26 25 11 9 9 26 32 31 29 33 31 36 35 34 29
8 7 7 9 11 13 16 17 16 16 17 24 9 6 9 16 15 19 20 18 21 21 18 14 18 19 18 18 18 17 21 17 19 11 13 5 10 22 25 32 34 35 31 32 37 38 36
9 6 5 6 9 11 13 15 16 17 19 18 20 18 7 11 16 16 17 21 21 22 22 28 23 19 19 25 25 25 25 24 20 18 12 12 6 7 21 31 29 24 30 35 36 34 37
12 9 6 6 6 8 9 12 15 18 22 23 21 15 8 10 14 16 16 19 22 23 23 25 24 20 33 26 26 26 27 25 24 22 15 15 14 7 12 16 20 23 29 30 36 32 33
13 10 9 8 6 5 6 9 12 15 19 26 24 25 12 11 16 20 25 25 27 32 25 24 34 34 26 14 10 11 9 9 16 24 22 18 12 5 5 10 11 18 26 31 31 38 39
12 10 9 7 7 7 7 7 9 12 16 22 30 32 24 9 18 33 22 28 18 16 18 27 36 27 20 6 8 11 10 8 7 5 25 25 24 12 13 12 19 28 21 25 22 25 39
12 10 9 10 11 13 15 16 16 16 16 19 26 29 30 18 33 26 15 16 29 22 14 15 6 16 26 8 11 12 14 10 12 14 7 6 9 17 17 11 13 11 5 17 14 11 16
14 13 12 12 14 18 19 22 21 22 24 25 32 31 33 21 39 38 39 40 33 24 15 12 12 12 7 10 7 7 10 12 12 15 9 8 4 9 12 18 24 6 15 21 14 4 6
16 16 16 17 18 20 20 22 22 21 19 19 30 29 32 38 25 23 39 51 50 50 36 25 13 7 13 8 7 6 8 8 17 13 9 8 7 4 1 3 12 10 8 18 5 9 9
Wind_Direction
296 305 311 306 271 276 272 283 289 294 286 290 280 271 263 260 258 257 254 250 245 247 248 244 254 249 243 231 232 243 199 209 343 43 164 219 226 223 234 236 237 236 249 233 244 244 248
292 303 309 310 275 280 282 274 275 277 289 291 287 282 272 264 261 260 256 253 249 243 247 239 237 243 229 243 251 233 232 239 273 267 275 226 229 235 275 252 236 252 251 251 238 236 237
299 306 307 298 304 284 284 270 274 268 281 285 285 286 284 276 267 263 264 259 255 247 237 235 227 236 231 235 245 236 239 238 246 254 251 240 247 236 252 258 250 259 257 250 231 236 238
303 299 295 299 299 296 283 279 274 268 267 272 275 280 284 289 284 275 268 265 258 254 244 239 231 223 232 250 240 234 230 227 236 249 248 245 239 243 248 260 248 241 240 253 243 232 227
302 302 298 298 296 301 287 274 273 265 262 263 268 271 273 284 294 297 281 268 262 253 249 233 236 206 250 237 239 241 230 230 217 221 241 226 226 228 226 237 247 226 251 233 252 228 233
295 289 290 290 289 289 284 272 271 261 261 263 261 262 263 278 292 297 301 281 259 251 248 229 236 195 234 210 225 235 230 222 226 232 241 226 226 221 222 223 230 232 230 250 246 200 231
298 303 294 299 295 292 287 285 272 253 252 254 257 261 265 267 281 296 308 328 226 235 216 206 202 214 107 212 199 229 209 202 206 215 219 199 215 223 221 221 245 257 253 252 252 250 283
301 304 297 296 295 293 289 283 272 263 248 245 256 263 267 265 276 280 315 253 268 333 283 231 236 231 236 203 182 186 185 182 193 211 209 215 226 230 234 237 231 243 247 249 256 263 283
303 299 297 299 297 288 284 280 267 258 251 256 260 256 256 263 279 286 285 269 271 273 268 252 232 230 213 197 206 188 186 197 198 212 208 214 231 227 234 229 231 231 235 244 253 249 249
300 296 304 303 304 296 290 279 265 261 250 259 255 253 254 268 295 260 256 255 258 235 265 249 219 237 219 218 238 213 201 186 207 218 217 227 236 234 224 230 221 239 232 248 257 254 254
315 309 307 308 307 303 295 281 272 258 261 260 259 253 256 254 221 225 230 248 314 171 246 200 211 216 208 201 217 214 212 212 228 205 198 224 226 227 231 226 224 242 246 246 238 244 257
314 309 309 307 301 297 298 278 268 260 253 248 244 253 242 247 242 236 243 252 275 209 228 227 184 200 186 203 218 222 203 216 225 240 222 241 231 220 229 232 230 237 235 238 237 237 243
310 306 302 303 299 299 296 294 263 258 249 240 245 253 236 228 245 241 219 216 220 231 213 213 195 203 206 199 216 217 191 199 200 189 196 236 238 237 228 232 225 214 211 219 219 216 238
306 303 304 302 292 297 293 285 271 252 240 227 224 240 234 225 217 178 170 204 225 229 245 42 296 210 215 217 213 211 207 204 208 199 206 224 225 216 213 221 211 213 213 219 223 231 242
300 298 295 292 292 287 287 278 272 255 239 227 222 235 235 231 216 204 194 212 232 243 268 252 262 318 226 216 230 207 224 222 205 218 214 222 233 228 217 219 221 220 213 224 248 275 280
293 288 284 281 280 279 279 276 270 254 232 218 216 227 235 228 206 191 209 234 233 236 259 307 285 208 271 224 205 204 199 220 228 218 227 238 249 221 215 220 222 227 214 220 226 218 236
292 283 280 274 272 269 268 269 267 252 230 216 216 212 207 207 182 196 230 224 234 245 256 244 264 284 297 284 280 218 204 218 208 224 221 234 240 251 230 205 211 210 222 212 219 219 235
297 285 273 272 266 265 263 260 259 253 224 225 204 214 193 177 186 208 234 229 260 259 254 253 263 264 267 285 292 276 298 241 208 213 215 224 233 245 235 220 221 221 212 211 214 208 222
293 292 275 265 261 263 263 254 251 243 221 206 205 202 183 183 219 223 220 240 248 253 251 244 247 258 258 273 282 328 348 315 324 353 227 221 220 239 242 246 220 221 217 219 213 225 219
291 284 279 269 261 260 251 248 242 236 221 210 194 196 177 210 227 241 233 234 236 245 252 249 257 266 272 271 264 281 289 289 298 306 316 311 237 214 231 220 222 234 227 220 214 218 224
284 279 274 258 260 252 250 247 245 231 220 206 208 230 205 199 226 224 231 236 228 234 236 241 246 243 253 266 261 254 263 272 277 275 295 315 240 219 240 240 247 221 222 224 225 218 221
324 291 281 257 255 251 245 244 240 229 207 207 200 201 226 249 233 221 233 233 239 246 242 246 249 263 262 264 264 265 265 273 275 262 280 304 299 234 240 243 239 244 240 226 229 228 230
10 350 322 282 269 264 251 244 238 229 212 211 216 232 247 246 237 244 240 233 244 250 251 246 254 261 262 255 275 276 275 279 268 278 262 257 253 305 235 237 244 247 237 240 232 232 231
19 17 2 335 307 282 266 251 241 231 225 222 220 213 213 243 242 244 245 242 244 244 250 252 247 244 253 275 286 284 279 267 258 259 250 254 252 241 266 278 227 236 240 239 241 247 240
20 19 15 7 356 329 295 270 255 244 236 235 230 218 222 249 251 255 251 252 259 259 253 255 252 250 268 277 261 257 241 240 242 239 233 222 236 260 251 257 253 248 225 216 221 240 237
0 4 3 8 8 357 346 322 292 269 252 243 242 242 229 249 236 246 252 249 246 245 252 249 257 251 240 220 229 243 245 254 221 227 209 212 214 215 255 276 243 247 219 210 222 240 241
344 337 330 327 327 324 317 306 293 283 274 260 251 245 232 248 255 248 244 244 244 244 251 255 251 228 220 217 222 231 235 230 239 242 209 189 208 219 229 236 257 233 196 164 185 242 229
322 321 316 310 315 320 316 315 297 279 271 261 262 259 237 248 254 249 249 243 246 238 235 235 222 203 198 220 218 204 235 229 243 237 226 228 236 231 214 219 244 188 163 174 202 191 223
312 307 304 301 303 312 313 319 311 284 277 270 261 264 270 246 258 252 253 251 242 238 234 233 224 187 208 210 217 215 219 216 232 239 200 219 228 279 120 275 341 214 182 208 0 294 245
Height
1491 1490 1489 1487 1487 1487 1487 1486 1486 1485 1485 1484 1483 1484 1484 1485 1485 1487 1489 1490 1493 1495 1497 1500 1501 1503 1506 1506 1501 1500 1500 1502 1503 1503 1506 1508 1508 1506 1501 1499 1499 1499 1494 1495 1498 1498 1499
1487 1486 1485 1485 1484 1483 1482 1482 1482 1481 1482 1481 1480 1480 1480 1481 1481 1483 1484 1485 1487 1490 1492 1494 1497 1499 1502 1498 1495 1496 1499 1500 1501 1503 1505 1506 1506 1505 1501 1497 1496 1491 1493 1491 1493 1494 1495
1483 1483 1482 1481 1481 1480 1479 1478 1477 1477 1478 1478 1477 1477 1478 1477 1477 1478 1479 1481 1483 1483 1487 1490 1492 1493 1493 1488 1489 1491 1493 1496 1497 1500 1503 1503 1505 1506 1500 1499 1495 1495 1492 1489 1488 1491 1488
1479 1479 1478 1477 1476 1475 1473 1473 1473 1472 1474 1474 1474 1474 1474 1474 1474 1474 1475 1477 1478 1479 1482 1485 1485 1487 1478 1481 1485 1489 1490 1490 1492 1495 1499 1502 1502 1503 1501 1496 1495 1493 1488 1483 1475 1479 1484
1476 1475 1473 1472 1471 1469 1468 1467 1468 1468 1469 1469 1470 1470 1470 1471 1471 1471 1472 1472 1474 1475 1477 1481 1483 1483 1475 1473 1476 1481 1485 1488 1492 1493 1495 1499 1500 1498 1497 1495 1490 1483 1479 1474 1473 1472 1475
1472 1471 1469 1468 1466 1463 1462 1462 1462 1463 1464 1465 1466 1467 1467 1468 1467 1468 1468 1469 1470 1471 1475 1478 1479 1483 1470 1468 1472 1473 1477 1483 1487 1492 1494 1495 1496 1490 1488 1484 1477 1477 1478 1478 1472 1466 1473
1467 1465 1464 1462 1460 1458 1457 1457 1458 1458 1460 1461 1462 1463 1464 1465 1465 1465 1467 1469 1473 1472 1468 1461 1460 1460 1460 1464 1468 1466 1470 1475 1481 1484 1481 1486 1489 1472 1466 1471 1473 1470 1470 1471 1465 1464 1470
1463 1461 1459 1458 1456 1454 1453 1453 1454 1454 1455 1458 1459 1460 1461 1462 1463 1464 1464 1467 1469 1466 1461 1457 1457 1457 1461 1461 1464 1463 1467 1470 1472 1464 1477 1479 1468 1455 1467 1468 1473 1475 1473 1468 1465 1465 1473
1459 1456 1454 1452 1450 1449 1449 1448 1449 1450 1451 1453 1455 1457 1458 1459 1461 1463 1464 1466 1464 1463 1462 1449 1446 1449 1454 1458 1458 1458 1462 1461 1460 1463 1458 1457 1440 1464 1462 1464 1468 1466 1464 1464 1465 1463 1467
1454 1452 1450 1448 1447 1446 1445 1445 1445 1447 1448 1450 1452 1454 1456 1457 1462 1460 1462 1462 1461 1463 1459 1440 1436 1433 1445 1450 1446 1452 1454 1456 1454 1449 1455 1452 1440 1450 1453 1455 1459 1460 1457 1462 1464 1470 1468
1451 1449 1447 1446 1444 1443 1442 1442 1442 1443 1445 1447 1449 1451 1453 1455 1457 1459 1461 1461 1461 1463 1453 1419 1418 1423 1426 1434 1421 1435 1447 1451 1443 1445 1449 1431 1438 1443 1445 1441 1451 1445 1456 1455 1460 1463 1465
1448 1446 1444 1442 1441 1440 1439 1438 1439 1440 1443 1445 1447 1448 1450 1452 1453 1457 1458 1459 1462 1460 1435 1409 1409 1413 1420 1424 1424 1428 1434 1442 1442 1447 1444 1428 1430 1436 1431 1437 1444 1449 1454 1455 1455 1458 1462
1445 1443 1441 1439 1438 1437 1436 1435 1436 1437 1439 1441 1444 1446 1448 1450 1453 1453 1455 1459 1458 1435 1415 1409 1407 1408 1410 1415 1420 1420 1424 1429 1429 1438 1448 1428 1427 1427 1432 1433 1436 1443 1449 1456 1461 1453 1436
1441 1439 1437 1435 1435 1434 1433 1433 1433 1434 1436 1438 1441 1443 1445 1447 1450 1452 1454 1456 1445 1425 1422 1411 1409 1406 1407 1408 1411 1416 1413 1414 1419 1415 1410 1417 1419 1416 1412 1413 1416 1427 1434 1437 1449 1433 1416
1436 1434 1433 1432 1431 1430 1430 1430 1431 1432 1434 1436 1439 1440 1442 1444 1448 1450 1454 1448 1436 1431 1422 1416 1410 1419 1405 1401 1404 1411 1408 1401 1403 1405 1403 1392 1394 1392 1402 1407 1420 1410 1428 1411 1427 1419 1426
1430 1428 1427 1427 1426 1426 1427 1427 1428 1430 1432 1434 1435 1438 1439 1441 1444 1448 1451 1440 1436 1430 1427 1427 1426 1417 1407 1393 1404 1404 1403 1396 1394 1394 1396 1387 1388 1384 1391 1406 1407 1408 1408 1432 1428 1445 1441
1423 1421 1421 1421 1421 1422 1423 1424 1425 1427 1429 1431 1434 1435 1434 1436 1441 1445 1435 1430 1429 1429 1429 1429 1422 1421 1409 1404 1406 1387 1378 1381 1387 1388 1391 1387 1390 1379 1379 1385 1390 1395 1398 1402 1409 1417 1420
1415 1413 1413 1414 1415 1416 1417 1419 1421 1423 1427 1428 1430 1430 1429 1432 1438 1434 1429 1429 1431 1427 1427 1425 1422 1418 1419 1413 1409 1401 1390 1370 1376 1383 1384 1379 1383 1380 1375 1367 1377 1381 1385 1389 1414 1418 1405
1407 1406 1406 1407 1408 1410 1411 1413 1415 1418 1422 1425 1426 1426 1427 1430 1426 1425 1426 1427 1427 1426 1423 1421 1419 1412 1412 1412 1412 1408 1400 1393 1394 1393 1379 1378 1381 1386 1379 1377 1369 1370 1370 1372 1383 1398 1399
1399 1399 1399 1400 1402 1404 1406 1407 1409 1412 1416 1421 1423 1421 1424 1423 1418 1418 1418 1420 1423 1420 1417 1416 1414 1415 1411 1409 1411 1409 1400 1393 1393 1398 1397 1398 1369 1366 1359 1353 1358 1376 1365 1362 1368 1389 1380
1392 1393 1394 1395 1397 1398 1400 1402 1404 1406 1410 1415 1416 1412 1411 1411 1414 1415 1414 1413 1414 1415 1411 1409 1405 1406 1406 1404 1404 1406 1399 1384 1388 1391 1396 1396 1366 1362 1350 1348 1347 1350 1353 1354 1353 1359 1368
1389 1389 1390 1391 1392 1393 1395 1396 1398 1401 1406 1408 1409 1409 1407 1402 1401 1405 1406 1406 1407 1403 1405 1404 1403 1399 1397 1395 1392 1395 1390 1383 1381 1384 1391 1394 1374 1359 1353 1342 1345 1338 1333 1339 1343 1339 1341
1389 1389 1389 1389 1390 1390 1391 1392 1394 1397 1400 1399 1401 1402 1403 1396 1396 1395 1392 1395 1395 1396 1397 1396 1394 1393 1390 1382 1383 1385 1383 1383 1381 1379 1383 1390 1391 1376 1346 1342 1342 1347 1339 1327 1325 1328 1331
1392 1390 1389 1388 1388 1388 1388 1388 1389 1391 1393 1394 1394 1398 1397 1387 1388 1384 1385 1387 1387 1388 1387 1386 1387 1389 1381 1388 1386 1380 1375 1372 1371 1368 1376 1378 1375 1372 1361 1353 1330 1322 1321 1327 1326 1318 1319
1393 1391 1389 1388 1387 1386 1386 1386 1386 1387 1388 1388 1388 1391 1390 1382 1380 1377 1378 1378 1378 1378 1377 1377 1376 1380 1383 1388 1384 1379 1372 1370 1362 1359 1358 1366 1372 1363 1350 1326 1315 1305 1303 1314 1318 1306 1305
1394 1392 1390 1388 1387 1386 1385 1384 1383 1382 1382 1381 1380 1382 1382 1376 1360 1369 1370 1370 1367 1368 1368 1363 1367 1373 1378 1376 1374 1364 1352 1340 1336 1338 1336 1345 1353 1356 1349 1342 1310 1277 1284 1293 1306 1315 1281
1393 1391 1389 1387 1385 1383 1381 1380 1379 1377 1376 1376 1372 1373 1372 1361 1352 1362 1357 1356 1359 1359 1353 1354 1357 1361 1365 1361 1356 1350 1341 1336 1331 1319 1324 1329 1335 1333 1338 1340 1293 1273 1276 1287 1314 1291 1278
1390 1388 1385 1383 1381 1379 1376 1373 1370 1368 1367 1367 1362 1363 1361 1348 1341 1348 1344 1345 1345 1347 1344 1342 1348 1347 1353 1350 1345 1336 1332 1321 1316 1310 1308 1310 1313 1315 1321 1320 1304 1284 1285 1285 1279 1280 1279
1386 1383 1381 1378 1376 1373 1370 1367 1363 1360 1358 1357 1352 1352 1351 1344 1330 1330 1326 1325 1328 1326 1332 1332 1331 1331 1335 1334 1329 1324 1322 1317 1314 1307 1304 1310 1310 1295 1299 1294 1291 1284 1281 1279 1284 1284 1279